Flag for Finland Weather past 2 weeks in Turku, Finland

Now
50 °F

Passing clouds.


Feels Like: 47 °F
Forecast: 44 / 55 °F
Wind: 7 mph from South

Location: Turku Airport

Current Time: May 26, 2015 at 8:55:45 AM

Latest Report: May 26, 2015 at 8:20 AM


Visibility: N/A

Pressure: 29.83 "Hg

Humidity: 76%

Dew point: 43 °F

Location of TurkuLocation

Historic Weather in Turku — Graph

°F

Turku temperature yesterday

Maximum temperature yesterday: 55 °F (at 4:20 PM)
Minimum temperature yesterday: 43 °F (at 11:50 PM)
Average temperature yesterday: 48 °F

Past Weeks' High & Low Weather Summary

 TemperatureHumidityPressure
High61 °F (May 21, 3:50 PM)100% (May 12, 7:50 PM)30.18 "Hg (May 12, 7:50 PM)
Low30 °F (May 17, 4:50 AM)38% (May 24, 1:20 PM)29.21 "Hg (May 13, 6:50 AM)
Average47 °F75%29.77 "Hg
* Reported May 11 7:20 AM — May 26 7:20 AM, Turku, Weather by CustomWeather, © 2015

Note: Actual official high and low records may vary slightly from our data, if they occured in-between our weather recording intervals... More about our weather records

Advertising

Turku weather history for previous 24 hours

 ConditionsComfort  
Time TempWeatherWind HumidityBarometerVisibility
7:20 AM
Tue, May 26
46 °FScattered clouds.3 mph87%29.83 "HgN/A
6:50 AM45 °FPartly sunny.6 mph93%29.83 "HgN/A
6:20 AM45 °FBroken clouds.7 mph93%29.83 "Hg4 mi
5:50 AM45 °FMostly cloudy.6 mph93%29.83 "Hg4 mi
5:20 AM45 °FMostly cloudy.7 mph100%29.83 "Hg4 mi
4:50 AM45 °FFog.6 mph100%29.83 "Hg2 mi
4:20 AM45 °FFog.5 mph100%29.86 "Hg1 mi
3:50 AM43 °FFog.5 mph100%29.86 "Hg1 mi
3:20 AM43 °FFog.6 mph100%29.86 "Hg1 mi
2:50 AM43 °FFog.6 mph100%29.86 "Hg1 mi
2:20 AM43 °FLow clouds.3 mph100%29.86 "Hg5 mi
1:50 AM43 °FLow clouds.5 mph100%29.86 "Hg5 mi
1:20 AM43 °FLow clouds.3 mph100%29.86 "HgN/A
12:20 AM43 °FPassing clouds.3 mph93%29.86 "HgN/A
11:50 PM
Mon, May 25
43 °FPassing clouds.6 mph100%29.86 "HgN/A
11:20 PM45 °FPassing clouds.5 mph87%29.86 "HgN/A
10:50 PM46 °FPassing clouds.3 mph82%29.86 "HgN/A
10:20 PM48 °FPassing clouds.3 mph76%29.86 "HgN/A
9:50 PM48 °FSunny.2 mph82%29.86 "Hg10 mi
9:20 PM50 °FPassing clouds.5 mph76%29.86 "HgN/A
8:50 PM50 °FPassing clouds.5 mph76%29.86 "HgN/A
8:20 PM52 °FPassing clouds.6 mph72%29.86 "HgN/A
7:50 PM52 °FPassing clouds.7 mph72%29.86 "HgN/A
7:20 PM52 °FPassing clouds.6 mph77%29.86 "HgN/A
6:50 PM52 °FPassing clouds.7 mph77%29.86 "HgN/A
6:20 PM52 °FPassing clouds.7 mph77%29.86 "HgN/A
5:50 PM54 °FPassing clouds.8 mph67%29.86 "HgN/A
5:20 PM54 °FPassing clouds.9 mph67%29.86 "HgN/A
4:50 PM54 °FSunny.8 mph67%29.86 "Hg10 mi
4:20 PM55 °FPassing clouds.8 mph67%29.86 "HgN/A
3:50 PM54 °FPassing clouds.9 mph72%29.86 "HgN/A
3:20 PM54 °FScattered clouds.9 mph72%29.86 "HgN/A
2:50 PM50 °FPartly sunny.7 mph82%29.86 "HgN/A
2:20 PM48 °FLow clouds.8 mph87%29.86 "HgN/A
1:50 PM48 °FMore clouds than sun.9 mph87%29.86 "HgN/A
1:20 PM50 °FOvercast.10 mph82%29.86 "HgN/A
12:50 PM50 °FOvercast.9 mph82%29.86 "HgN/A
12:20 PM48 °FLow clouds.10 mph87%29.86 "HgN/A
11:50 AM48 °FLow clouds.7 mph87%29.89 "HgN/A
11:20 AM46 °FLow clouds.7 mph93%29.86 "HgN/A
10:50 AM46 °FLow clouds.10 mph93%29.89 "HgN/A
10:20 AM46 °FLow clouds.8 mph87%29.86 "HgN/A
9:50 AM46 °FLow clouds.9 mph87%29.86 "HgN/A
9:20 AM46 °FMore clouds than sun.9 mph87%29.86 "HgN/A
8:50 AM46 °FPartly sunny.8 mph87%29.86 "HgN/A
8:20 AM46 °FPartly sunny.10 mph87%29.86 "HgN/A
Weather by CustomWeather, © 2015

See weather overviewHow to use our weather pages